Regional Weather Roundup
Issued by NWS Cleveland, OH

Home | Current Version | Previous Version | Graphics & Text | Print | Product List | Glossary On
Versions: 1 2 3 4 5 6 7 8 9 10 11 12 13 14 15 16 17 18 19 20 21 22 23 24 25 26 27 28 29 30 31 32 33 34 35 36 37 38 39 40 41 42 43 44 45 46 47 48 49 50
000
ASUS41 KCLE 210910
RWRCLE
OHIO REGIONAL WEATHER ROUNDUP
NATIONAL WEATHER SERVICE WILMINGTON, OH
500 AM EDT MON AUG 21 2017

NOTE: "FAIR" INDICATES FEW OR NO CLOUDS BELOW 12,000 FEET WITH NO
SIGNIFICANT WEATHER AND/OR OBSTRUCTIONS TO VISIBILITY.

OHZ001>008-015>018-024>027-034-035-043-044-211000-
   NORTHWEST OHIO

CITY           SKY/WX    TMP DP  RH WIND       PRES   REMARKS
DEFIANCE       FAIR      69  67  93 CALM      30.09F
FINDLAY        FAIR      69  65  86 S3        30.10S
TOLEDO EXPRESS FAIR      67  67 100 CALM      30.09S
TOLEDO EXEC    FAIR      70  68  93 SW3       30.10S
LIMA           FAIR      67  65  93 CALM      30.11F
$$

OHZ009>014-019>023-028>033-038-089-211000-
   NORTHEAST OHIO

CITY           SKY/WX    TMP DP  RH WIND       PRES   REMARKS
CLE-HOPKINS    MOCLDY    75  67  76 S9        30.12S
CLE-LAKEFRONT  FAIR      76  66  71 S8        30.08S
CUY CO. ARPT   NOT AVBL
LORAIN-ELYRIA    N/A    N/A N/A N/A MISG      30.11F
ASHTABULA      MOCLDY    69  63  81 S9        30.13S
AKRON-CANTON   MOCLDY    71  64  78 SW5       30.15S
WOOSTER        FAIR      64  63  96 CALM      30.14F
MANSFIELD      FAIR      68  67  96 S3        30.14F
YOUNGSTOWN     MOCLDY    70  61  73 S8        30.15R
$$

OHZ042-051>053-060>062-070>072-077>081-211000-
  SOUTHWEST OHIO

CITY           SKY/WX    TMP DP  RH WIND       PRES   REMARKS
CINC-COVINGTON FAIR      72  69  90 SW6       30.13S
CINC-LUNKEN    FAIR      69  69 100 CALM      30.13R FOG
HAMILTON       FAIR      69  69 100 CALM      30.13R
DAYTON         MOCLDY    74  65  73 SW8       30.13S
WRIGHT-PAT AFB MOCLDY    72  69  91 CALM      30.12S
DAYTON GENERAL FAIR      71  67  87 S6        30.12S
WILMINGTON     FAIR      70  69  97 SW3       30.14S
$$

OHZ036-037-039>041-045>050-054>059-063>069-073>076-082>088-211000-
  CENTRAL AND SOUTHEAST OHIO

CITY           SKY/WX    TMP DP  RH WIND       PRES   REMARKS
COLUMBUS       FAIR      72  70  93 SE3       30.12F
OSU AIRPORT    FAIR      69  69 100 SE3       30.12F
BOLTON FIELD   FAIR      67  66  99 CALM      30.13S
RICKENBACK AFB FAIR      68  68 100 CALM      30.13R
NEWARK         FOG       66  65  96 CALM      30.13S VSB 1
MARION         FAIR      67  64  90 CALM      30.12F FOG
LANCASTER      FAIR      67  66  97 CALM      30.13F FOG
ZANESVILLE     FAIR      69  66  90 SE3       30.14F
NEW PHILLY     FAIR      66  66 100 SE3       30.14F
$$




USA.gov is the U.S. government's official web portal to all federal, state and local government web resources and services.